Weather History for KDRO - January, 2014

Change the Weather History Date:

Wednesday, January 1, 2014

  Actual Average Record
Temperature  
Mean Temperature 34 °F 24 °F  
Max Temperature 50 °F 37 °F 68 °F (1997)
Min Temperature 18 °F 10 °F -26 °F (2011)
Degree Days  
Heating Degree Days 31 41  
Month to date heating degree days 31 41  
Since 1 July heating degree days 2989 2915  
Cooling Degree Days 0 0  
Month to date cooling degree days 0 0  
Year to date cooling degree days 0 0  
Moisture  
Dew Point 12 °F    
Average Humidity 52    
Maximum Humidity 91    
Minimum Humidity 12    
Precipitation  
Precipitation 0.00 in 0.04 in 0.31 in (1977)
Month to date precipitation 0.00 0.04  
Year to date precipitation 0.00 0.04  
Sea Level Pressure  
Sea Level Pressure 30.25 in    
Wind  
Wind Speed 6 mph (NE)    
Max Wind Speed 18 mph    
Max Gust Speed 23 mph    
Visibility 10 miles    
Events      
T = Trace of Precipitation, MM = Missing Value Source: NWS Daily Summary

Daily Weather History Graph

Daily Weather History Graph

Search for Another Location

Airport or City:

Trip Planner

Search our weather history database for the weather conditions in past years. The results will help you decide how hot, cold, wet, or windy it might be!

Date:

Astronomy

Jan. 01, 2014 Rise Set
Actual Time 7:24 AM MST 5:04 PM MST
Civil Twilight 6:55 AM MST 5:33 PM MST
Nautical Twilight 6:23 AM MST 6:06 PM MST
Astronomical Twilight 5:51 AM MST 6:37 PM MST
Moon 7:19 AM MST 5:51 PM MST
Length of Visible Light 10h 37m
Length of Day
9h 40m
New Moon, 0% of the Moon is Illuminated
Jan 1
New Moon
Jan 7
First Quarter
Jan 15
Full
Jan 23
Last Quarter
Jan 30
New

Hourly Weather History & Observations

Time (MST) Temp. Windchill Dew Point Humidity Pressure Visibility Wind Dir Wind Speed Gust Speed Precip Events Conditions
12:53 AM 28.0 °F - 21.9 °F 78% 30.21 in 10.0 mi Calm Calm - N/A   Overcast
1:53 AM 27.0 °F - 21.0 °F 78% 30.18 in 10.0 mi Calm Calm - N/A   Overcast
2:53 AM 25.0 °F - 19.9 °F 81% 30.18 in 10.0 mi Calm Calm - N/A   Clear
3:53 AM 23.0 °F - 18.0 °F 81% 30.18 in 10.0 mi Calm Calm - N/A   Clear
4:53 AM 21.0 °F 14.6 °F 18.0 °F 88% 30.20 in 10.0 mi NE 4.6 mph - N/A   Clear
5:53 AM 19.9 °F - 16.0 °F 85% 30.22 in 10.0 mi Calm Calm - N/A   Clear
6:53 AM 19.9 °F - 16.0 °F 85% 30.26 in 10.0 mi Calm Calm - N/A   Clear
7:53 AM 19.9 °F 10.1 °F 17.1 °F 89% 30.26 in 10.0 mi East 8.1 mph - N/A   Clear
8:53 AM 24.1 °F 17.0 °F 18.0 °F 77% 30.27 in 10.0 mi East 5.8 mph - N/A   Clear
9:53 AM 30.0 °F 26.5 °F 21.0 °F 69% 30.27 in 10.0 mi Variable 3.5 mph - N/A   Clear
10:53 AM 34.0 °F 27.2 °F 21.0 °F 59% 30.24 in 10.0 mi East 8.1 mph - N/A   Clear
11:53 AM 37.9 °F 32.1 °F 21.0 °F 51% 30.20 in 10.0 mi East 8.1 mph - N/A   Clear
12:53 PM 42.1 °F 37.7 °F 21.9 °F 45% 30.17 in 10.0 mi East 6.9 mph - N/A   Clear
1:53 PM 46.9 °F - 18.0 °F 32% 30.14 in 10.0 mi Calm Calm - N/A   Clear
2:53 PM 50.0 °F - -0.9 °F 12% 30.14 in 10.0 mi North 11.5 mph 18.4 mph N/A   Clear
3:53 PM 46.0 °F 39.9 °F -4.0 °F 12% 30.19 in 10.0 mi NW 13.8 mph - N/A   Clear
4:53 PM 43.0 °F 36.0 °F -4.0 °F 14% 30.24 in 10.0 mi WNW 13.8 mph - N/A   Clear
5:53 PM 41.0 °F 33.1 °F -2.0 °F 16% 30.27 in 10.0 mi WNW 15.0 mph 20.7 mph N/A   Clear
6:53 PM 39.0 °F 30.6 °F -0.9 °F 19% 30.29 in 10.0 mi WNW 15.0 mph - N/A   Clear
7:53 PM 37.0 °F 29.8 °F -0.9 °F 20% 30.32 in 10.0 mi NNW 10.4 mph - N/A   Clear
8:53 PM 32.0 °F 26.4 °F 3.9 °F 31% 30.35 in 10.0 mi ESE 5.8 mph - N/A   Clear
9:53 PM 26.1 °F 21.9 °F 10.9 °F 53% 30.36 in 10.0 mi Variable 3.5 mph - N/A   Clear
10:53 PM 24.1 °F 14.4 °F 12.0 °F 60% 30.38 in 10.0 mi East 9.2 mph - N/A   Clear
11:53 PM 21.9 °F 14.5 °F 12.0 °F 66% 30.38 in 10.0 mi East 5.8 mph - N/A   Clear